Location: Maccacari
(45.1333°N, 11.1333°E)
Time: 01:14:55
(UTC+00:00)

A-11 Canister half - Pass Details

Date: 26 January 2021
Orbit: 1525 x 1684 km, 47.3° (Epoch: 07 March)

Event Time Altitude Azimuth Distance (km) Brightness Sun altitude
Rises 11:40:09 0° 199° (SSW) 4,660 12.7 26.2°
Reaches altitude 10° 11:43:38 10° 189° (S) 3,680 12.8 26.2°
Maximum altitude 11:51:18 30° 133° (SE) 2,473 10.9 26.1°
Drops below altitude 10° 11:59:02 10° 77° (ENE) 3,742 10.9 25.9°
Sets 12:02:35 0° 67° (ENE) 4,749 11.3 25.8°
